Regional Weather Roundup
Issued by NWS Grand Forks, ND

Home | Current Version | Previous Version | Text Only | Print | Product List | Glossary Off
Versions: 1 2 3 4 5 6 7 8 9 10 11 12 13 14 15 16 17 18 19 20 21 22 23 24 25 26 27 28 29 30 31 32 33 34 35 36 37 38 39 40 41 42 43 44 45 46 47 48 49 50

000
ASUS43 KFGF 292131
RWRFGF
PRAIRIE TO PINES  WEATHER ROUNDUP
NATIONAL WEATHER SERVICE EASTERN NORTH DAKOTA/GRAND FORKS ND
400 PM CDT MON JUN 29 2015

 **SATELLITE DATA USED TO AUGMENT SKY COVER AT AUTOMATED STATIONS**
 *****  WEATHER ACROSS EASTERN NORTH DAKOTA  *****

CITY           SKY/WX    TMP DP  RH WIND       PRES   REMARKS
GRAND FORKS    CLOUDY    77  64  64 N12       29.87S
GRAND FRKS AFB SUNNY     76  65  67 N10       29.88F
GRAND FRKS NWS   N/A     77 N/A N/A N9          N/A
DEVILS LAKE    SUNNY     77  61  57 NE5       29.92S
FARGO          SUNNY     77  62  59 NW12      29.86S
WAHPETON ARPT  CLEAR     77  63  61 NW10      29.86S
$$

 ***** WEATHER ACROSS CENTRAL AND WESTERN NORTH DAKOTA  *****

CITY           SKY/WX    TMP DP  RH WIND       PRES   REMARKS
BISMARCK       MOSUNNY   92  54  27 NW9       29.94F HX  90
MINOT          PTSUNNY   88  58  36 NW9       29.92F
JAMESTOWN      MOSUNNY   81  61  50 N9        29.91F
MINOT AFB      MOSUNNY   91  56  30 N9        29.91F HX  90
GARRISON         N/A     89  59  36 NW9       29.94F
WILLISTON      PTSUNNY   95  58  28 W7        29.92F HX  94
DICKINSON      MOSUNNY   89  62  40 SW6       29.97F
HETTINGER      SUNNY     89  60  37 W9        30.02F
$$

 *****  OTHER AIRPORT OBSERVATIONS IN OUR AREA  *****

CITY           SKY/WX    TMP DP  RH WIND       PRES   REMARKS
WALHALLA       FAIR      73  64  73 MISG      29.92S
GRAFTON AIRPOR FAIR      75  61  60 N10       29.89S
VALLEY CITY AR FAIR      77  64  65 N7        29.91S
CANDO          FAIR      75  63  64 N5        29.94S
CAVALIER APRT  FAIR      75  63  64 N10       29.90S
GWINNER        NOT AVBL
ROLLA            N/A     73  61  64 NE5       29.97S
 ***** THE ABOVE OBSERVATIONS ARE NON NWS ARE NOT QUALITY
       CONTROLLED AND MAY MIS-REPORT RAIN FOR SNOW...
$$

  *****  WEATHER ACROSS NORTHERN MINNESOTA  *****

CITY           SKY/WX    TMP DP  RH WIND       PRES   REMARKS
FLAG ISLAND    MOSUNNY   72  55  56 NE10      29.86S
WARROAD        MOSUNNY   72  63  73 E13       29.87S
ROSEAU         MOSUNNY   79  61  53 N12       29.86R
HALLOCK        SUNNY     77  63  61 N13       29.87F
THF RVR FALLS  SUNNY     79  55  44 N13       29.87R
BAUDETTE       SUNNY     75  58  55 N14G21    29.85R
WASKISH        SUNNY     79  59  50 N9        29.84R
CROOKSTON      SUNNY     79  64  61 N14       29.87S
$$
  *****  WEATHER ACROSS CENTRAL AND WEST MINNESOTA  *****

CITY           SKY/WX    TMP DP  RH WIND       PRES   REMARKS
FOSSTON        SUNNY     77  63  61 NW9G16    29.86S
BEMIDJI        MOSUNNY   79  58  48 NW14      29.84S
PARK RAPIDS    MOSUNNY   81  61  50 N14       29.82S
ELBOW LAKE     FAIR      75  65  70 NW10      29.85S
WADENA         SUNNY     77  63  61 NW10      29.82F
DETROIT LAKES  SUNNY     77  63  61 NW10      29.87S
MOORHEAD       SUNNY     75  64  69 NW12      29.87S
FERGUS FALLS   SUNNY     75  63  64 NW12      29.85R
MORRIS MN      SUNNY     79  63  57 NW13G20   29.84F
STAPLES        SUNNY     81  61  50 NW13      29.81S
$$
  *****  WEATHER ELSEWHERE ACROSS MINNESOTA  *****

CITY           SKY/WX    TMP DP  RH WIND       PRES   REMARKS
DULUTH         MOSUNNY   76  60  57 N13       29.78R
INTRNTL FALLS  PTSUNNY   73  59  61 N14G21    29.83R
ELY            MOSUNNY   72  57  60 NW12G17   29.78F
CLOQUET        MOSUNNY   73  61  64 CALM      29.77F
WHEATON        SUNNY     75  63  64 NW13      29.87S
BRAINERD       MOSUNNY   83  60  45 NW14      29.79R
HIBBING        MOSUNNY   78  59  51 N10       29.78S
ALEXANDRIA     SUNNY     77  66  68 W14       29.85F
SAINT CLOUD    SUNNY     82  62  50 W9G20     29.78F
MINNEAPOLIS    LGT RAIN  78  64  61 NW9       29.78F
$$

  *****  WEATHER ACROSS SOUTH DAKOTA  *****

CITY           SKY/WX    TMP DP  RH WIND       PRES   REMARKS
SIOUX FALLS    SUNNY     82  57  42 NW14      29.92F HAZE
BROOKINGS      SUNNY     81  61  50 NW12      29.93S
WATERTOWN      SUNNY     81  61  50 NW10      29.91F
HURON          SUNNY     86  62  44 N8        29.91F
SISSETON         N/A     82  60  47 NW15      29.86F
ABERDEEN       SUNNY     88  60  38 NW12      29.90F
MITCHELL       SUNNY     86  60  41 N7        29.93F
PIERRE         SUNNY     90  59  35 NW13      29.95F
MOBRIDGE       SUNNY     94  55  26 NW9       29.92F HX  92
RAPID CITY     SUNNY     89  55  31 VRB6      30.07F
$$

  *****  SOME WEATHER IN NEARBY STATES *****

CITY           SKY/WX    TMP DP  RH WIND       PRES   REMARKS
GLASGOW MT     SUNNY     98  43  15 N9        29.96F HX  94
GREAT FALLS MT CLOUDY    94  49  21 VRB3      30.02F HX  90
CHEYENNE WY    MOSUNNY   83  52  34 W9G20     30.28S
SCOTTSBLUFF NE SUNNY     90  51  26 CALM      30.12F
OMAHA NE       CLOUDY    86  62  44 NW8       29.91F
DES MOINES IA  CLOUDY    82  62  50 NW14      29.87F
DAVENPORT IA   MOSUNNY   79  66  64 W9        29.81F
CHICAGO IL     TSTM      67  63  87 SW3       29.80S FOG
EAU CLAIRE WI  TSTM      59  58  96 NE8       29.81R VSB 1
LA CROSSE WI   MOSUNNY   78  63  59 NE3       29.76F
$$

  *****  SOME NATIONAL WEATHER *****

CITY           SKY/WX    TMP DP  RH WIND       PRES   REMARKS
LA GUARDIA NY  MOSUNNY   77  53  43 W10       29.90S
RALEIGH NC     MOSUNNY   86  61  42 SE7       29.94F
ATLANTA GA     MOSUNNY   83  61  47 SW8       29.99F
NEW ORLEANS LA PTSUNNY   90  71  53 SW12      30.00F THUNDER HX  96
OKLAHOMA CITY  MOSUNNY   95  66  38 N10       29.94F HX  98
ALBUQUERQUE NM MOSUNNY   93  41  16 N9        30.16F
SALT LAKE CITY MOSUNNY  100  48  17 W8        30.02F HX  96
LOS ANGELES CA PTSUNNY   74  62  66 W14       29.89F
BOISE ID       MOSUNNY  102  55  20 NW12      29.94F HX 100
SEATTLE WA     MOSUNNY   81  59  47 W7        30.03R
$$

*** WEATHER ACROSS MANITOBA...SASKATCHEWAN AND ONTARIO ***
                ***ONTARIO***

CITY           SKY/WX    TMP DP  RH WIND       PRES   REMARKS
GERALDTON      LGT RAIN  66  61  82 W5        29.73S
THUNDER BAY    LGT RAIN  70  61  73 N6        29.73R
SIOUX LOOKOUT  PTSUNNY   68  57  68 N7G18     29.84S
TORONTO        PTSUNNY   73  59  60 S10G17    29.86F
BIG TROUT LK   SUNNY     61  36  39 NE9G17    29.96S
PICKLE LAKE    PTSUNNY   57  48  72 NE10G20   29.91R
DRYDEN         CLOUDY    70  54  56 N12G18    29.84F
KENORA         CLOUDY    72  54  53 NE8       29.88S
$$
                *** MANITOBA***

CITY           SKY/WX    TMP DP  RH WIND       PRES   REMARKS
BRANDON        CLOUDY    73  59  60 E7        29.96R
DAUPHIN        SUNNY     73  61  64 E7        29.96R
ISLAND LAKE    PTSUNNY   59  46  63 VRB2      30.01F
PILOT MOUND      N/A     72  61  68 N6          N/A
THE PAS        PTSUNNY   72  59  64 NE7       29.99S
THOMPSON       PTSUNNY   64  45  48 VRB6      30.02S
WINNIPEG       MOSUNNY   72  64  78 N12       29.91S
LYNN LAKE      CLOUDY    63  57  82 SE5       30.03S
CHURCHILL      MOSUNNY   57  34  41 NE9       30.04S
GILLAM         MOSUNNY   61  37  41 N5        30.04S
$$
                ***SASKATCHEWAN***

CITY           SKY/WX    TMP DP  RH WIND       PRES   REMARKS
ESTEVAN        CLOUDY    90  57  33 NW9G18    29.95F
KINDERSLEY     CLOUDY    75  54  46 N10G18    30.10S
LLOYDMINSTER   CLOUDY    75  52  43 W12       30.10  SMOKE
PRINCE ALBERT  SMOKE     73  57  56 NW7       30.04R VSB 3/8
REGINA         CLOUDY    77  48  36 N13       30.00S SMOKE
YORKTON        HAZE      70  59  68 NW8       29.96S VSB 1
N. BATTLEFORD  SUNNY     75  54  46 NW6       30.10F HAZE
LA RONGE       SMOKE     77  57  50 SE8       29.99F VSB 3/4
SASKATOON      SMOKE     73  52  46 N8        30.09R VSB 3/4
SWIFT CURRENT  CLOUDY    81  45  28 NE14      30.07S HAZE
$$
NOTE: THESE ARE AUTOMATED STATIONS WITH LIMITED QUALITY CONTROL
      "FAIR" INDICATES FEW OR NO CLOUDS BELOW 12,000 FEET WITH NO
      SIGNIFICANT WEATHER AND/OR OBSTRUCTIONS TO VISIBILITY.
      SKY/WX - SKY CONDITION AND SIGNIFICANT WEATHER.
      TMP - AIR TEMPERATURE.    DP   - DEWPOINT TEMPERATURE.
      RH  - RELATIVE HUMIDITY.  PRES - PRESSURE.
      HX  - HEAT INDEX.         WCI  - WIND CHILL INDEX.
$



USA.gov is the U.S. government's official web portal to all federal, state and local government web resources and services.